Tracking 35274 objects as of 11-Sep-2026
HD Live streaming from Space Station
objects crossing your sky now

SBS 3

Track SBS 3 now!
SBS 3 is classified as:


NORAD ID: 13651
Int'l Code: 1982-110B
Launch date: November 11, 1982
Source: United States (US)
Launch site: AIR FORCE EASTERN TEST RANGE (AFETR)
Your satellite tracking list
Your tracking list is empty




NASA's NSSDC Master Catalog

Two Line Element Set (TLE):
1 13651U 82110B   26253.00971796 -.00000221  00000-0  00000-0 0  9991
2 13651  12.4157 333.7920 0006157 139.4310 221.2864  0.99938855 47388
Source of the keplerian elements: AFSPC